Theta_e
315 317 322 326 323 318 321 322 318 319 319 319 321 320 319 320 321 321 323 323 322 319 315 314 314 314 316 316 317 321 320 323 324 326 326 327 327 325 325 325 324 324 324 324 323 323 322 322 323
316 319 324 326 321 322 321 318 318 318 319 319 320 320 319 318 319 319 319 322 323 318 314 314 314 314 314 313 313 314 314 315 317 318 318 319 321 323 323 321 321 320 320 320 320 321 321 321 322
317 320 325 321 319 320 319 317 315 317 319 318 318 319 319 318 318 318 318 318 320 316 314 314 314 314 314 314 314 313 313 313 313 313 313 313 313 313 313 313 312 312 311 311 311 311 311 311 312
318 320 321 315 319 316 319 315 316 316 318 318 318 316 317 318 318 317 317 317 317 314 314 314 314 313 312 312 311 311 311 311 311 311 311 310 310 309 308 307 305 304 304 303 303 303 303 303 303
319 322 319 318 316 316 318 318 318 315 316 317 318 316 316 316 317 316 316 317 316 314 314 313 312 311 310 308 308 308 308 308 307 307 306 304 304 303 303 303 303 303 303 303 303 303 303 303 303
319 319 317 318 318 318 317 319 319 317 317 317 317 316 317 316 316 315 315 316 316 315 313 313 312 311 309 308 308 308 307 306 305 304 303 303 303 303 303 303 303 303 303 303 303 303 303 303 303
319 318 319 319 318 318 318 319 317 317 316 316 317 315 315 316 316 314 314 315 315 315 313 312 311 310 309 308 308 308 307 305 304 303 302 302 303 303 303 303 303 304 305 305 305 304 303 303 302
320 315 319 317 318 319 317 318 318 318 316 318 318 314 315 318 316 313 314 315 315 315 314 312 311 310 309 307 308 307 306 305 303 302 302 302 302 302 302 303 305 306 306 307 307 307 305 303 302
319 314 315 318 320 319 317 316 318 318 317 317 317 317 317 318 316 314 313 313 313 314 313 311 310 310 309 307 307 306 306 304 302 302 302 302 302 303 304 304 305 306 306 306 306 306 306 305 303
319 315 317 318 317 318 317 316 317 316 315 316 317 317 317 316 316 316 314 314 314 313 313 312 310 309 309 307 306 306 305 303 302 302 302 302 303 303 303 304 305 305 305 305 305 305 305 303 302
318 316 317 319 319 317 317 316 317 316 313 316 317 317 316 316 315 315 314 314 315 314 312 312 310 310 309 308 306 306 305 303 302 302 302 302 302 303 303 303 304 304 304 304 305 305 304 303 302
318 318 319 319 319 318 316 316 316 316 317 318 318 317 317 316 316 316 315 314 314 313 312 311 310 309 309 308 306 305 305 304 303 302 302 302 302 302 302 302 303 304 304 304 304 304 303 301 299
317 317 319 319 318 317 317 315 314 316 317 317 317 317 317 317 317 317 316 315 313 312 312 311 310 309 308 308 307 306 305 305 303 302 302 302 302 302 302 302 303 303 303 303 302 302 302 302 300
317 317 317 317 317 316 315 314 315 316 317 317 317 317 317 316 317 317 316 315 314 312 312 311 310 309 308 308 307 306 304 304 303 302 301 301 301 301 301 302 303 302 302 302 302 302 302 301 300
317 315 312 314 316 314 315 313 312 317 316 317 317 317 317 317 317 317 316 316 315 313 312 311 310 309 308 307 306 305 303 303 302 301 301 301 301 301 302 302 302 302 302 301 301 302 302 301 299
314 313 314 314 313 315 315 314 313 317 316 315 316 316 317 317 317 316 316 315 314 313 311 310 310 308 308 306 305 304 303 302 302 301 301 301 301 301 301 301 301 301 301 300 300 301 301 299 298
311 311 312 314 314 312 312 313 312 317 316 316 316 317 317 316 316 316 316 315 315 313 312 310 309 309 307 306 305 303 302 302 302 301 301 301 300 300 300 301 301 300 300 299 299 300 300 299 298
311 312 312 313 314 312 311 312 313 315 314 315 316 316 316 316 317 317 316 315 314 313 312 311 309 308 307 305 304 302 301 301 300 301 300 300 299 299 300 300 300 299 299 299 299 299 298 297 297
312 312 312 312 313 313 313 313 313 314 312 313 315 316 316 317 317 317 317 315 314 313 311 310 309 308 306 306 304 303 303 301 300 300 300 299 299 298 299 299 299 298 298 298 298 298 298 297 295
312 313 314 313 313 311 312 312 312 312 313 313 314 315 316 317 317 317 316 316 314 314 312 310 309 308 307 307 306 304 304 301 300 300 299 299 298 298 298 298 298 298 298 298 298 297 297 295 293
313 313 313 312 312 310 310 311 311 311 313 314 314 316 316 316 315 315 315 315 314 313 312 311 310 308 307 306 304 303 300 299 298 298 297 297 297 297 297 297 297 297 297 297 296 296 295 293 292
314 311 312 312 313 314 310 314 311 311 311 311 313 314 316 317 316 315 314 314 314 313 312 311 309 308 307 306 304 304 304 303 303 300 299 299 296 296 296 297 297 297 297 297 296 295 293 292 291
313 311 311 312 311 312 313 312 313 310 310 310 311 315 317 316 315 314 314 314 314 313 312 311 309 307 307 307 305 304 303 302 301 300 299 298 296 295 296 296 296 296 296 296 295 294 292 291 290
310 312 311 310 308 312 311 313 314 309 312 310 311 313 316 316 314 314 314 314 313 312 310 309 309 307 307 306 305 305 304 302 300 299 298 297 296 295 295 295 295 295 295 295 294 292 291 290 290
311 312 312 312 310 314 310 311 314 311 309 310 311 313 316 315 313 313 313 313 313 312 310 309 307 307 306 305 305 305 304 303 301 299 298 297 296 295 295 295 295 295 294 294 293 292 290 290 289
309 312 314 313 312 313 308 310 312 311 312 313 314 316 315 312 313 313 313 312 312 311 310 308 307 307 307 306 306 305 304 302 301 300 299 297 296 296 295 294 294 294 294 293 292 291 290 289 288
310 311 311 313 305 308 313 310 309 310 308 308 309 311 310 312 313 312 312 311 311 310 310 309 309 308 308 308 306 305 305 304 303 301 299 297 295 294 294 293 293 293 293 293 292 291 290 289 288
308 307 312 312 314 312 312 310 312 312 311 310 307 306 310 311 311 311 311 310 310 310 310 310 309 309 308 307 306 305 304 304 303 301 299 298 294 293 292 292 292 292 292 292 291 290 289 288 288
305 308 308 309 312 314 314 313 308 309 310 310 308 309 309 310 311 311 311 311 310 309 310 310 309 308 307 307 307 306 304 303 301 301 299 297 294 292 292 292 292 292 292 291 290 289 288 288 287
307 310 311 312 313 308 311 313 310 310 309 310 310 312 312 312 311 311 311 311 310 310 309 310 309 308 308 308 306 305 303 302 300 299 299 296 293 292 291 291 291 291 291 290 289 288 288 287 286
Wind_Speed
3 2 1 2 4 4 4 5 3 3 3 3 8 5 8 4 3 4 12 15 14 15 13 12 12 11 10 10 8 8 6 5 4 4 4 5 6 6 6 6 6 7 8 9 9 11 11 11 10
3 3 2 0 3 2 5 3 4 2 5 7 6 4 5 1 2 5 15 18 16 17 14 12 10 9 9 8 8 7 7 6 6 7 7 7 7 8 8 8 8 8 10 11 12 12 12 12 12
2 2 1 3 3 4 3 5 7 6 7 5 3 1 2 5 6 5 10 17 20 16 15 13 12 11 10 9 8 7 7 6 7 6 6 6 7 8 8 7 7 7 8 10 11 12 12 13 14
3 2 1 3 7 8 4 5 8 10 5 7 5 2 4 9 4 7 12 16 19 18 16 14 14 13 11 10 9 9 8 7 6 5 4 3 4 4 4 5 6 6 7 8 9 10 11 12 12
2 1 1 3 6 5 1 16 15 6 7 9 9 4 4 12 13 9 11 18 20 19 17 16 15 14 12 11 9 8 7 7 6 5 4 4 3 3 3 3 3 3 4 5 6 7 8 8 9
1 1 2 4 5 4 4 15 12 9 8 9 7 4 4 9 15 14 15 19 21 19 18 17 16 15 14 12 10 8 8 7 6 5 5 4 3 2 2 1 2 4 6 7 8 8 8 9 9
2 3 4 5 7 5 4 10 9 11 12 13 6 5 4 14 14 15 17 20 22 21 20 19 19 17 14 12 10 9 9 8 7 6 6 5 4 3 2 0 1 2 4 5 7 9 10 11 10
2 3 4 5 4 5 5 5 3 8 10 7 16 7 6 14 16 17 20 22 23 22 22 21 21 18 16 14 13 12 10 9 8 8 7 6 5 4 2 1 1 4 6 9 12 15 15 15 14
2 2 4 5 3 3 8 4 5 5 5 10 14 10 9 9 17 19 23 24 24 25 25 24 23 21 19 17 16 14 12 11 9 8 7 6 5 4 3 3 5 8 11 12 14 15 17 18 17
4 3 6 4 4 2 4 6 8 5 7 10 14 19 20 16 18 22 25 26 26 26 27 27 26 24 22 20 18 17 15 13 12 11 10 9 8 7 6 6 7 9 10 11 12 14 16 17 17
6 6 4 5 5 5 3 4 7 8 7 16 24 30 25 24 24 26 28 28 26 26 28 28 28 26 24 22 20 19 16 15 14 13 12 11 9 9 8 8 8 9 11 12 13 14 15 14 14
5 13 19 10 8 5 3 7 6 20 25 7 11 22 28 30 30 30 32 32 30 30 29 29 29 29 27 25 23 21 19 17 16 14 14 12 12 10 9 9 10 12 12 13 13 14 14 14 14
8 7 17 15 14 14 12 18 11 26 26 27 30 27 23 32 34 32 31 30 31 33 32 31 31 32 30 29 27 25 22 20 19 18 17 16 15 13 12 12 12 12 12 13 13 13 14 14 14
4 6 13 13 14 15 8 8 7 26 24 28 33 31 32 34 34 33 35 35 35 35 35 33 33 33 33 32 30 27 25 23 22 21 21 19 17 16 14 14 13 13 13 14 15 15 16 17 16
6 8 9 15 19 8 11 10 14 44 30 21 22 27 36 37 34 38 38 39 37 37 35 35 35 34 34 33 32 30 28 26 26 25 24 22 20 19 17 15 14 14 14 14 14 15 16 17 17
3 2 4 3 8 8 13 16 10 21 24 32 35 29 28 34 38 37 37 38 38 37 38 36 37 36 34 34 34 32 30 29 28 27 26 24 22 20 18 16 15 14 13 13 14 15 17 19 20
4 6 8 10 15 7 7 11 8 13 23 30 30 32 32 32 34 38 40 38 39 38 38 40 40 39 36 34 35 33 31 31 30 29 29 27 26 23 20 18 16 15 13 14 14 16 18 20 21
8 6 7 9 3 4 7 15 18 21 10 19 22 26 32 36 45 42 39 41 41 40 39 40 41 40 37 34 36 35 34 34 34 33 32 30 28 25 22 20 18 16 14 14 15 17 18 20 23
5 6 7 9 8 7 13 17 21 26 19 28 36 40 43 45 49 44 40 39 41 42 41 42 43 42 39 39 41 41 41 39 38 36 34 32 30 27 24 22 19 16 15 15 17 18 18 19 21
12 18 19 13 15 10 10 18 13 13 21 25 33 39 45 50 52 47 38 38 43 45 45 44 44 43 42 40 41 42 41 39 38 36 36 34 32 28 26 23 20 17 16 17 18 19 19 19 20
17 13 18 15 7 6 8 11 9 12 25 28 33 42 48 49 46 39 32 35 41 47 47 45 44 41 42 41 41 42 40 39 40 42 40 37 34 31 28 26 22 19 18 19 19 19 19 18 18
23 9 12 9 3 14 6 19 7 8 16 14 29 35 42 46 41 34 28 34 40 46 46 43 41 40 41 41 42 44 45 45 47 45 41 38 36 33 32 29 25 22 20 20 20 20 19 18 18
19 4 9 3 5 5 6 7 4 8 10 12 15 34 43 43 38 24 26 31 36 45 47 43 40 39 40 41 42 43 45 46 44 41 39 38 38 36 33 30 27 24 22 21 20 20 19 20 18
3 2 2 2 2 11 9 11 13 7 13 7 17 33 42 41 29 21 23 31 37 44 45 43 40 41 41 42 42 42 44 45 44 43 41 41 39 37 35 32 29 26 23 21 20 20 20 20 20
3 5 3 3 1 11 12 11 25 8 8 14 17 32 35 36 20 20 23 30 34 40 42 42 41 42 43 44 43 43 42 42 42 43 43 43 42 40 38 33 30 27 23 21 21 21 22 22 21
9 14 7 8 6 13 4 8 7 14 18 25 33 35 34 20 20 21 23 26 30 34 39 41 41 42 45 45 45 43 42 43 41 42 45 46 43 40 34 32 31 28 25 23 22 22 23 22 22
5 7 12 3 2 2 12 14 9 6 9 10 22 29 20 25 25 24 21 24 27 32 34 36 38 41 45 46 46 46 44 44 43 43 45 45 42 38 35 34 32 29 26 24 24 24 24 24 24
3 0 2 3 4 7 15 8 15 6 17 17 10 13 26 22 23 21 20 21 25 26 27 31 36 40 40 43 47 49 48 45 43 43 44 44 41 40 39 36 32 29 27 25 25 24 24 25 25
1 4 5 3 4 13 17 15 7 8 7 10 11 20 19 19 20 22 19 19 21 21 23 28 32 36 38 40 44 50 51 49 48 44 43 43 42 42 40 37 33 30 27 26 26 25 26 26 26
5 12 17 13 19 3 5 15 4 12 9 5 3 6 9 12 14 13 16 19 21 19 23 25 31 36 34 41 46 48 51 49 48 46 44 43 42 41 40 37 34 31 29 27 26 26 25 26 27
Wind_Direction
200 191 106 50 38 67 269 262 141 76 60 67 77 86 132 92 155 197 171 192 194 191 188 194 195 198 202 207 209 210 215 229 243 256 267 277 291 302 303 302 303 302 300 302 301 300 308 313 308
188 174 87 29 92 31 274 210 122 137 131 107 93 68 80 142 186 172 169 196 199 189 186 190 190 192 193 197 202 200 212 220 231 243 255 266 271 275 279 281 283 288 292 293 294 295 300 301 303
143 157 49 109 165 197 236 168 161 123 132 139 117 131 154 186 202 210 187 191 198 190 185 187 189 196 196 201 205 205 212 223 241 253 259 262 269 273 279 284 288 289 290 293 296 301 301 300 297
154 139 265 94 246 263 227 158 145 130 130 157 149 163 201 201 204 184 198 188 198 191 191 192 195 197 192 193 193 195 199 205 223 228 235 241 250 257 274 285 291 293 294 297 305 309 311 308 305
76 239 41 250 260 268 210 164 158 150 163 192 180 218 219 211 223 215 198 197 200 194 198 199 201 196 189 188 188 186 188 187 197 206 214 227 247 265 282 296 305 311 322 332 335 329 325 321 315
339 263 34 253 251 267 191 161 159 157 186 180 194 165 227 228 222 218 207 202 203 203 204 207 206 204 200 197 195 192 191 193 197 201 207 210 215 219 225 267 336 355 355 352 345 337 331 327 327
146 97 226 252 260 290 224 166 165 180 172 189 187 170 231 216 211 216 208 204 210 208 210 211 209 209 209 209 208 207 201 199 202 207 205 199 192 197 206 313 2 350 337 337 332 331 330 325 328
252 109 278 244 237 250 173 149 192 207 223 221 201 215 224 230 209 205 207 211 217 216 213 213 214 214 214 215 211 209 205 206 206 205 203 200 195 194 187 210 296 320 333 336 334 332 332 331 332
247 44 254 256 243 213 169 165 197 227 216 199 203 234 235 228 206 205 209 213 219 220 220 218 218 218 216 215 213 211 210 211 210 210 211 218 219 225 243 287 318 331 337 335 330 325 321 321 320
169 160 235 223 313 322 215 197 194 214 226 228 225 234 242 235 217 215 218 221 224 224 224 221 221 219 218 218 215 212 210 208 209 211 216 224 232 241 262 284 304 316 318 318 318 321 322 319 316
199 215 219 299 331 332 298 261 229 201 246 229 229 234 237 237 234 232 231 236 238 232 227 227 224 224 221 222 220 219 215 213 212 217 225 231 238 249 263 275 287 293 296 301 311 322 323 317 313
225 241 253 276 275 269 260 277 250 230 241 267 250 251 246 237 239 241 239 238 235 234 234 231 227 227 225 223 222 222 221 220 222 226 233 238 245 255 265 277 285 286 291 301 310 316 321 325 323
217 241 256 274 261 258 255 258 254 264 255 253 252 259 247 243 246 246 247 244 239 237 236 234 230 230 226 227 224 224 224 224 226 228 232 237 244 251 258 266 272 279 287 297 308 316 322 323 323
270 268 271 272 266 250 208 262 238 266 273 259 246 246 251 251 252 249 244 244 240 239 238 235 233 231 228 227 226 225 224 225 226 228 231 234 240 246 254 262 270 277 288 298 309 316 324 329 326
287 307 310 259 249 223 204 281 225 263 254 255 248 246 246 248 252 252 255 252 247 243 240 236 235 232 229 226 225 224 224 225 227 227 230 234 239 245 251 258 264 273 284 296 305 317 325 324 319
256 209 279 252 179 196 155 263 234 259 249 245 247 245 244 248 251 256 257 254 249 244 240 236 236 234 231 228 226 224 225 227 230 230 233 236 240 244 248 253 259 267 279 291 304 314 319 323 323
241 238 218 294 188 153 180 251 261 265 240 246 246 243 242 249 249 255 256 255 252 246 240 235 235 234 232 229 228 226 227 230 233 233 235 237 240 242 246 252 258 267 280 291 299 306 315 321 320
214 224 246 230 212 160 198 247 267 254 257 246 243 243 242 249 265 267 260 255 248 244 241 238 235 232 230 231 228 226 227 229 231 233 235 236 237 238 242 248 253 261 273 284 294 302 313 319 320
232 261 239 265 252 179 228 235 246 261 240 247 255 261 264 266 270 268 265 254 245 239 235 234 232 229 227 227 224 225 225 226 231 232 234 235 238 239 241 246 253 262 272 282 288 297 306 313 316
244 259 268 278 264 202 246 245 243 255 254 237 243 250 256 264 268 269 262 256 239 236 232 231 233 232 229 230 229 228 230 229 234 237 237 236 238 238 241 245 250 257 268 277 284 293 301 310 318
244 244 260 265 301 250 296 267 232 248 247 252 249 255 263 264 263 264 256 247 237 228 230 231 233 233 231 230 228 228 227 229 231 232 234 235 236 236 238 242 248 256 266 275 281 288 295 303 311
263 225 244 244 236 270 151 291 231 242 248 247 252 252 255 255 260 263 252 238 232 232 229 231 232 232 230 230 228 228 229 228 231 234 236 238 236 236 238 241 245 251 260 269 275 282 288 296 300
257 223 239 240 240 313 176 285 231 187 241 251 249 248 255 262 266 255 241 236 234 229 226 228 231 231 229 229 230 229 232 234 238 239 239 239 237 236 237 239 242 248 256 263 271 277 284 290 295
123 74 355 30 80 265 174 202 261 192 219 244 246 250 258 263 255 249 236 222 224 224 224 227 229 228 227 228 230 232 234 236 235 236 237 236 236 235 236 238 240 245 252 261 268 274 281 287 291
155 100 295 313 346 251 186 210 253 290 249 220 232 239 239 246 239 222 215 213 221 221 222 226 229 228 227 229 231 234 235 238 239 240 241 238 236 233 234 235 238 244 251 259 267 273 276 281 288
195 202 184 206 233 277 136 245 256 214 230 238 242 240 234 218 217 219 223 222 221 222 223 224 225 227 229 230 232 234 237 240 240 241 243 243 242 241 239 238 238 241 248 255 261 266 273 280 283
187 182 228 299 126 26 265 270 290 241 247 248 238 236 224 223 217 215 218 223 225 224 227 227 228 230 232 233 234 235 237 239 241 241 242 244 245 241 237 235 237 240 245 254 261 265 271 277 282
159 79 109 236 209 246 261 262 265 273 270 259 265 216 236 220 214 217 222 228 230 228 230 233 233 237 239 240 239 240 240 240 241 242 243 245 242 238 236 235 237 240 244 251 259 265 271 275 280
86 247 234 293 193 250 263 271 217 242 248 258 246 234 223 220 231 235 229 228 230 228 228 235 239 241 240 243 243 243 243 241 240 243 243 244 240 237 236 236 237 240 246 252 257 263 268 275 281
254 229 228 241 251 240 270 262 185 252 233 186 313 321 263 243 238 234 238 235 231 229 234 241 243 243 254 252 248 246 244 244 242 242 243 242 237 234 235 235 237 239 244 250 256 262 270 277 281